www.pogodaiklimat.ru
ПОГОДА в Дюнкерке
Время
и дата
04:53 30.01
05:16 30.01
05:53 30.01
06:53 30.01
07:27 30.01
07:53 30.01
08:15 30.01
08:25 30.01
08:34 30.01
08:53 30.01
09:23 30.01
09:53 30.01
10:01 30.01
10:13 30.01
10:53 30.01
11:53 30.01
12:30 30.01
12:53 30.01
13:17 30.01
13:53 30.01
14:53 30.01
15:53 30.01
16:53 30.01
17:22 30.01
17:51 30.01
17:53 30.01
18:27 30.01
18:53 30.01
19:53 30.01
20:53 30.01
21:02 30.01
21:53 30.01
22:00 30.01
22:44 30.01
22:53 30.01
23:53 30.01
00:53 31.01
01:53 31.01
02:53 31.01
03:53 31.01
04:53 31.01
05:53 31.01
06:12 31.01
06:35 31.01
06:53 31.01
07:31 31.01
07:53 31.01
08:05 31.01
Ветер
(напр.,м/с)
Видим. Явления Облачность Т
(С)
Тd
(С)
f
(%)
Тe
(С)
Тes
(С)
Комфортность P
(гПа)
Po
(гПа)
Тmin
(С)
Tmax
(С)
R
(мм)
R24
(мм)
S
(см)
СВ 3 16 км 10/10 330 м -2.2 -5.0 81 -7 -7 1023.9 997.6
СВ 2 16 км 10/10 270 м -2.2 -5.0 81 -6 -6 997.6
СВ 3 16 км 10/10 210 м -2.8 -5.0 85 -8 -8 1023.5 997.2
СВ 3 11 км слабый снег 10/10 240 m
[Ns]
-2.8 -5.0 85 -8 -8 1023.0 996.9 -2.8 -2.2 1.0
СВ 2 13 км слабый снег 10/10 300 m
[Ns]
-2.8 -5.0 85 -7 -7 997.2
СВ 3 11 км слабый снег 10/10 390 m
[Ns]
-2.8 -5.0 85 -8 -8 1023.2 996.9
С 2 6 км слабый снег, дымка 10/10 480 m
[Ns]
-2.8 -5.0 85 -7 -7 997.6
С 2 4 км слабый снег, дымка 10/10 570 m
[Ns]
-2.8 -5.0 85 -7 -7 997.6
штиль 0 5 км слабый снег, дымка 10/10 510 m
[Ns]
-2.8 -5.0 85 -4 -4 997.6
СВ 2 11 км слабый снег 10/10 1410 m
[Ns]
-2.8 -5.0 85 -7 -7 1024.0 997.6
СВ 2 4 км слабый снег, дымка 10/10 720 m
[Ns]
-2.8 -5.0 85 -7 -7 997.6
В 2 5 км слабый снег, дымка 10/10 480 m
[Ns]
-2.2 -4.4 85 -6 -6 1024.0 997.6 0.3
штиль 0 8 км слабый снег 10/10 540 m
[Ns]
-2.2 -5.0 81 -3 -3 997.6
штиль 0 14 км слабый снег 10/10 240 m
[Ns]
-2.2 -5.0 81 -3 -3 997.9
СВ 3 11 км слабый снег 10/10 240 m
[Ns]
-2.8 -5.0 85 -8 -8 1024.0 997.6
СВ 3 16 км 10/10 270 м -2.2 -5.0 81 -7 -7 1023.2 996.9
СВ 2 16 км 10/10 300 м -2.2 -5.0 81 -6 -6 996.2
С 2 16 км 10/10 300 м -2.2 -5.0 81 -6 -6 1022.0 995.6 -2.8 -2.2 0.3
штиль 0 16 км 10/10 300 м -2.2 -5.0 81 -3 -3 995.3
штиль 0 16 км 10/10 1380 м -1.7 -5.0 78 -3 -3 1021.3 995.3
СЗ 2 16 км 10/10 1500 м -1.7 -5.0 78 -5 -5 1021.9 995.6
штиль 0 14 км слабый снег 10/10 1500 m
[Ns]
-1.1 -4.4 78 -2 -2 1022.2 995.9
ЮЗ 2 8 км слабый снег 10/8 390 m
[Ac Ns]
-1.1 -4.4 78 -5 -5 1022.6 996.2
ЮЗ 3 8 км слабый снег 10/8 390 m
[Ac Ns]
-1.1 -3.9 81 -6 -6 996.6
ЮЗ 2 11 км слабый снег 10/10 270 m
[Ns]
-1.0 -3.0 86 -5 -5 996.6
ЮЗ 2 11 км слабый снег 10/10 270 m
[Ns]
-1.1 -3.3 85 -5 -5 1023.0 996.6
ЮЗ 3 14 км слабый снег 10/10 360 m
[Ns]
-1.1 -3.9 81 -6 -6 996.9
ЮЗ 3 14 км слабый снег 10/10 390 m
[Ns]
-1.1 -3.9 81 -6 -6 1023.3 996.9 -2.2 -1.1 0.3
ЮЗ 3 16 км 10/8 450 m
[Ac]
-1.1 -3.9 81 -6 -6 1022.7 996.6
З 2 14 км слабый снег 10/10 420 m
[Ns]
-1.1 -3.9 81 -5 -5 1022.6 996.2
ЮЗ 2 11 км слабый снег 10/10 240 m
[Ns]
-1.1 -3.9 81 -5 -5 996.2
СЗ 4 14 км слабый снег 10/10 360 m
[Ns]
-1.1 -4.4 78 -7 -7 1023.0 996.6
СЗ 5 14 км слабый снег 10/10 360 m
[Ns]
-1.7 -4.4 82 -8 -8 996.9
СЗ 5
{9}
14 км слабый снег 10/10 510 m
[Ns]
-2.8 -6.7 74 -9 -9 997.2
СЗ 6
{9}
14 км слабый снег 10/10 510 m
[Ns]
-2.8 -6.7 74 -10 -10 1023.7 997.2
СЗ 6 13 км слабый снег 10/10 600 m
[Ns]
-3.3 -7.8 71 -10 -10 1024.3 997.9
З 4 13 км слабый снег 10/10 690 m
[Ns]
-3.9 -9.4 66 -10 -10 1024.5 998.2 -3.9 -0.6
СЗ 5 11 км слабый снег 10/10 720 m
[Ns]
-4.4 -9.4 68 -11 -11 1025.0 998.6
СЗ 4 14 км слабый снег 10/10 720 m
[Ns]
-5.0 -10.0 68 -11 -11 1025.9 999.5
З 5
{9}
16 км 10/10 780 м -5.6 -11.1 65 -13 -13 1026.0 999.5
СЗ 4
{8}
16 км 10/10 750 м -5.6 -11.1 65 -12 -12 1026.5 999.9
З 4
{7}
16 км 10/10 750 м -6.1 -12.2 62 -12 -12 1027.2 1000.5
З 6
{9}
16 км слабый снег 10/10 780 m
[Ns]
-6.1 -11.7 65 -14 -14 1000.9
СЗ 3
{8}
14 км слабый снег 10/10 630 m
[Ns]
-6.7 -11.1 71 -12 -12 1001.2
СЗ 5 14 км слабый снег 10/10 750 m
[Ns]
-6.7 -12.2 65 -14 -14 1028.1 1001.5 -6.7 -4.4 0.5
СЗ 4 14 км 10/10 810 м -6.7 -12.8 62 -13 -13 1001.9
З 5 14 км слабый снег 10/10 630 m
[Ns]
-6.7 -12.8 62 -14 -14 1028.7 1001.9
З 4 16 км 10/10 870 м -6.7 -13.3 59 -13 -13 1002.2
Местоположение метеостанции Chautauqua County / Dunkirk Airport: широта 42.4931 долгота -79.2758 высота над уровнем моря 211 м.
В архиве по умолчанию представлена погода в Дюнкерке за последние 1-2 суток. Обновление информации о фактической погоде в базе происходит ежечасно! Архивные данные за месяц целиком и за предыдущие месяцы Вы можете получить, выбрав интересующий диапазон дат из раскрывающегося списка и нажав кнопку "Ввод!".
Внимание! Архив погоды МЕТАР в базе сайта по станциям, не включенным в климатический монитор, хранится не более 60 дней. Нет смысла пытаться выбрать более раннюю дату.
*Определитесь, кто Вы:
Внимание! Время в таблицах - местное (без учета летнего времени). Для получения всемирного времени необходимо вычесть поправку, которая равна -5 ч.
Смотрите также архив погоды в соседних городах и на ближайших метеорологических станциях:
Партнеры нашего сайта:      
Пояснения к столбцам:
  • Ветер - указаны скорость ветра в м/с - средняя за 10 мин, порывы в срок и между сроками (в фигурных скобках) и направление, откуда дует ветер: С - северный,
  • СВ - северо-восточный, В - восточный, ЮВ - юго-восточный, Ю - южный, ЮЗ - юго-западный, З - западный, СЗ - северо-западный.
  • Видимость - горизонтальная дальность видимости в метрах или километрах. При видимости от 1 до 10 км при отсутствии осадков обычно наблюдается дымка, при ухудшении видимости до 1 км и менее - туман. В сухую погоду видимость может ухудшаться дымом, пылью или мглою.
  • Явления - указаны атмосферные явления, наблюдавшиеся в срок или в последний час перед сроком; фигурными скобками обозначены явления, наблюдавшиеся между сроками (за 1-3 часа до срока); квадратными скобками обозначены град или гололедные отложения с указанием их диаметра в мм.
  • Облачность - указаны через наклонную черту общая и нижняя облачность в баллах и высота нижней границы облаков в метрах; квадратными скобками обозначены формы облаков: Ci - перистые, Cs - перисто-слоистые, Cc - перисто-кучевые, Ac - высококучевые, As - высокослоистые, Sc - слоисто-кучевые, Ns - слоисто-дождевые, Cu - кучевые, Cb - кучево-дождевые. Подробнее классификацию облаков см. в Атласе облаков (PDF).
  • T - Температура воздуха - температура, измеренная на высоте 2 м над землей.
  • Td - Температура точки росы - температура, при понижении до которой содержащийся в воздухе водяной пар достигнет насыщения.
  • f - Относительная влажность воздуха - влажноcть воздуха, измеренная на высоте 2 м над землей.
  • Te - Эффективная температура - температура, которую ощущает одетый по сезону человек в тени. Характеристика душности погоды. При расчете учитывается влияние влажности воздуха и скорости ветра на теплоощущения человека.
  • Tes - Эффективная температура на солнце - температура, которую ощущает человек, с поправкой на солнечный нагрев. Характеристика знойности погоды. Зависит от высоты солнца над горизонтом, облачности и скорости ветра. Ночью, в пасмурную погоду, а также при ветре 12 м/с и более поправка равна нулю.
  • P - Атмосферное давление - приведенное к уровню моря атмосферное давление.
  • Po - Атмосферное давление - измеренное на уровне метеостанции атмосферное давление.
  • Tmin - Минимальная температура - минимум температуры воздуха на высоте 2 м над землей.
  • Tmax - Максимальная температура - максимум температуры воздуха на высоте 2 м над землей.
  • R - Количество осадков - Количество выпавших осадков за период времени, мм. При наведении курсора мыши на число - период времени, за который выпало указанное количество осадков.
  • R24 - Количество осадков - Количество выпавших осадков за 24 часа, мм.
  • S - Снежный покров - Высота снежного покрова, см. При наведении курсора мыши на число - состояние снежного покрова и степень покрытия местности в баллах.